Temperature
18 18 18 18 18 18 17 17 17 17 17 17 17 17 17 17 17 17 17 16 16 16 16 16 15 15 15 15 15 15 15 15 15 15 15 15 15 15 15 15 15 15 15
18 18 18 17 18 18 18 17 17 17 17 17 18 18 18 17 17 17 16 16 16 16 16 15 15 15 15 15 15 15 15 15 15 15 15 15 15 15 15 15 15 15 15
18 18 17 17 17 18 17 17 17 17 17 17 17 17 17 17 17 17 16 16 16 16 15 15 15 15 15 15 15 15 15 15 15 15 15 15 15 15 15 15 15 15 15
18 18 18 17 17 17 17 17 17 17 17 17 17 17 17 17 17 17 16 16 16 15 15 15 15 15 15 15 15 15 15 15 15 15 15 15 15 15 15 15 15 15 15
18 18 18 18 18 17 17 17 17 17 17 17 17 17 17 17 17 17 16 16 16 15 15 15 15 15 15 14 14 14 14 15 15 15 15 15 15 15 15 15 15 15 15
18 18 18 18 18 17 17 17 17 17 17 17 17 17 17 17 17 17 16 16 16 16 15 15 15 15 14 14 14 14 14 14 14 15 15 15 15 15 15 15 15 15 15
18 18 18 18 17 17 17 17 17 17 17 17 17 17 17 17 17 17 17 16 16 16 16 15 15 15 14 14 14 14 14 14 14 14 15 15 15 15 15 15 15 15 15
18 18 18 18 18 18 18 17 17 17 17 17 17 17 17 17 17 17 17 17 16 16 16 15 15 15 14 14 14 14 14 14 14 14 14 14 14 14 14 15 15 14 14
19 19 19 18 18 18 18 18 18 17 17 17 17 17 17 17 17 17 17 17 16 16 16 15 15 15 15 14 14 14 14 14 14 14 14 14 14 14 14 14 14 14 14
19 19 19 19 18 18 18 18 18 18 18 18 17 17 17 17 17 17 17 17 16 16 16 15 15 15 15 15 14 14 14 14 14 14 14 14 14 14 14 14 14 14 14
19 19 19 19 19 18 18 18 18 18 18 18 18 17 17 17 17 17 17 17 16 16 16 16 15 15 15 15 14 14 14 14 14 14 14 14 14 14 14 14 14 14 14
20 20 20 19 19 19 19 19 18 18 18 18 18 17 17 17 17 17 17 17 16 16 16 16 16 15 15 15 15 14 14 14 14 14 14 14 14 14 14 13 13 13 13
20 20 20 20 19 19 19 19 19 19 18 18 18 18 17 17 17 17 17 17 17 16 16 16 16 16 15 15 15 15 14 14 14 14 14 14 14 14 14 13 13 13 13
20 20 20 20 19 19 19 19 19 19 18 18 18 18 18 18 17 17 17 17 17 16 16 16 16 16 16 15 15 15 15 14 14 14 14 14 14 14 14 14 13 13 13
18 19 19 19 19 19 19 19 19 19 19 18 18 18 18 18 17 17 17 17 17 16 16 16 16 16 16 15 15 15 15 14 14 14 14 14 14 14 14 14 14 13 13
18 18 19 19 19 19 19 19 19 19 19 18 18 18 18 18 18 17 17 17 17 16 16 16 16 16 16 15 15 15 14 14 14 14 14 14 14 14 14 14 14 13 13
17 17 18 18 19 19 19 19 19 19 18 18 18 18 18 18 18 17 17 17 16 16 16 16 16 16 16 15 15 15 14 14 14 14 14 14 14 14 14 14 13 13 13
17 17 18 18 18 18 19 19 19 19 18 18 18 18 17 17 17 17 17 17 16 16 16 16 15 15 15 15 15 14 14 14 14 14 14 14 14 14 13 13 13 13 13
16 16 17 17 18 18 18 18 18 18 17 17 17 17 17 17 17 17 17 16 16 16 16 15 15 15 15 14 14 14 14 14 14 13 13 13 13 13 13 13 13 13 13
16 16 16 16 17 17 17 17 17 17 17 17 17 17 16 16 16 16 16 16 16 16 15 15 15 14 14 14 14 13 13 13 13 13 13 13 13 13 12 12 12 12 13
15 15 16 16 16 16 16 16 16 16 16 16 16 16 16 16 15 15 15 15 15 15 15 14 14 14 13 13 13 13 13 13 13 12 12 12 12 12 12 11 11 12 11
14 15 15 15 15 15 16 15 15 15 15 15 15 15 15 15 14 14 14 14 14 14 14 13 13 13 13 13 12 12 12 12 12 12 12 12 11 11 11 11 11 11 11
13 14 14 14 14 14 14 14 14 14 14 14 14 14 14 14 14 13 13 13 13 13 13 12 12 12 12 12 12 12 11 11 11 11 11 11 11 11 10 10 10 10 10
13 13 13 13 13 13 13 13 13 13 13 13 13 13 13 13 13 13 12 12 12 12 12 12 12 12 12 11 11 11 11 11 11 11 10 10 10 10 10 10 10 9 9
12 12 12 12 12 12 12 12 12 12 12 12 12 12 12 12 12 12 12 11 11 11 11 11 11 11 11 11 11 10 10 10 10 10 10 10 9 9 9 9 9 9 9
12 12 12 12 12 12 12 12 12 12 12 12 12 11 11 11 11 11 11 11 11 11 10 10 10 10 10 10 10 9 9 9 9 9 9 9 9 9 8 8 8 8 8
Wind_Speed
5 6 7 9 10 10 10 10 10 9 9 7 6 5 5 4 4 5 8 10 10 11 9 6 5 4 3 3 3 3 4 3 2 3 3 4 4 4 4 3 3 3 2
6 7 7 8 9 10 11 11 11 11 10 8 6 4 4 4 3 4 6 9 10 10 8 7 5 4 4 4 3 3 3 2 2 2 3 3 3 4 4 3 3 3 3
9 9 8 9 9 10 11 11 11 10 10 9 6 6 5 4 3 3 3 5 9 9 9 8 6 5 4 4 3 3 4 3 2 2 3 3 2 1 3 3 3 3 3
8 9 9 10 10 10 9 9 9 9 9 10 10 10 7 5 5 4 4 4 7 8 9 9 7 5 4 4 3 2 3 4 2 2 2 2 3 3 1 2 2 3 3
9 9 10 10 9 10 10 9 9 9 9 10 10 10 7 5 4 5 6 4 4 5 8 8 7 5 4 4 4 3 3 3 3 2 2 2 2 2 2 0 2 2 2
8 8 7 7 7 8 9 9 10 10 10 10 10 9 10 9 8 7 6 5 3 3 5 7 7 6 5 4 4 4 4 3 3 3 2 3 2 2 2 2 1 1 2
9 8 8 8 9 10 10 10 11 10 10 10 10 10 10 10 10 9 8 7 4 4 5 6 6 5 5 6 5 4 4 3 4 3 2 2 2 2 3 3 1 0 1
8 9 9 9 10 11 11 11 12 10 10 10 10 9 9 8 7 8 8 8 7 6 6 7 7 7 7 6 5 4 3 3 3 4 3 2 2 2 3 3 3 1 1
8 9 9 9 9 10 10 11 11 10 10 10 9 9 9 9 9 8 8 7 6 6 7 8 7 7 7 7 6 4 4 4 4 3 3 2 2 2 2 2 3 4 2
7 8 8 9 8 9 9 9 10 10 9 9 9 9 9 9 9 9 9 8 8 7 7 8 8 7 7 7 6 4 4 5 4 3 3 3 2 2 2 3 2 3 3
9 9 8 8 8 7 8 9 9 8 8 9 8 8 8 8 8 9 9 9 8 8 8 9 8 8 8 7 7 6 6 6 5 4 5 5 3 3 3 3 3 3 3
8 8 8 7 7 8 9 9 9 9 9 9 8 7 7 8 9 10 9 8 8 8 9 8 9 9 9 9 9 8 8 8 7 7 6 6 4 5 4 3 4 4 4
7 7 7 8 8 9 9 9 9 9 8 8 8 7 8 10 10 9 8 8 8 8 8 8 9 9 9 9 9 9 8 8 8 8 8 7 6 6 5 5 5 4 4
6 7 7 7 7 7 8 8 8 8 8 9 9 9 9 10 9 8 8 8 8 8 9 9 10 10 9 9 9 9 9 8 8 8 8 8 8 8 7 6 6 5 5
5 5 6 6 6 6 6 8 8 8 9 9 10 10 9 8 8 8 8 8 8 9 9 9 9 8 8 9 9 9 9 9 8 8 8 8 9 10 8 7 7 6 5
5 4 5 5 5 5 6 6 7 8 9 10 10 9 8 8 8 8 8 7 8 8 7 8 8 9 8 10 12 10 8 8 9 8 8 7 8 9 10 10 9 9 7
5 5 5 4 4 4 5 6 6 7 8 9 8 8 8 8 8 8 8 8 8 7 8 8 9 9 10 11 12 13 9 8 8 8 7 7 7 8 7 8 9 10 11
5 4 4 3 3 2 3 3 5 6 7 7 7 7 8 8 7 7 7 7 6 7 7 8 8 8 9 11 12 12 10 8 8 8 8 8 7 6 7 6 7 7 8
6 4 4 4 4 4 4 5 5 5 4 4 4 5 6 6 6 6 6 5 5 6 6 5 7 8 7 9 11 10 7 6 7 7 7 7 7 7 8 7 7 7 7
8 7 7 8 8 6 6 8 7 7 5 3 2 3 4 4 4 4 3 3 3 4 4 3 4 5 5 5 8 8 5 5 5 4 5 7 8 7 7 7 7 8 7
9 8 9 9 8 7 9 10 9 7 5 5 6 5 4 3 3 3 2 2 2 2 2 2 1 1 1 1 2 5 4 5 5 4 4 3 5 6 7 7 6 8 6
10 9 10 10 9 8 10 11 9 6 7 8 8 7 6 5 4 4 3 3 3 3 2 2 2 1 1 1 1 1 2 2 3 3 3 2 4 5 5 5 5 6 5
10 9 11 11 10 10 10 11 7 6 8 9 8 7 7 6 6 5 4 3 3 3 2 2 1 1 1 2 2 1 1 1 1 1 1 1 1 2 3 4 5 4 3
9 9 11 12 10 10 10 8 7 8 10 10 9 8 7 7 7 6 4 4 3 2 2 1 1 1 1 2 2 1 1 1 0 1 1 1 1 0 1 2 2 2 3
8 9 10 10 9 9 10 9 7 8 10 9 8 8 7 7 7 7 6 6 5 3 3 2 2 2 2 2 3 2 2 1 1 1 1 2 2 3 2 2 2 2 2
9 10 10 10 8 9 9 8 8 8 9 8 7 6 6 5 5 6 7 10 9 10 10 7 5 4 4 5 6 5 5 4 3 3 2 2 2 2 3 3 3 3 3
Wind_Direction
165 159 171 170 167 171 177 179 173 168 159 155 154 154 156 149 145 151 151 150 149 148 140 133 126 127 120 121 118 102 82 60 51 77 47 27 36 47 36 28 40 41 39
166 169 170 173 173 176 177 179 175 170 166 165 158 148 135 133 134 133 139 150 150 150 149 143 140 136 120 111 111 113 106 68 50 108 94 44 13 12 23 26 37 34 41
182 178 178 178 177 182 181 181 173 168 162 151 133 119 99 95 108 123 140 152 155 155 152 151 144 142 136 139 136 132 128 120 59 64 130 135 189 328 355 18 26 21 32
182 182 181 180 184 185 176 170 167 167 159 152 154 155 157 160 168 159 156 146 155 158 158 155 150 148 143 144 150 139 135 134 129 75 59 101 142 138 43 348 1 11 26
183 185 187 185 182 178 174 171 166 168 163 163 164 162 157 148 137 135 143 146 150 160 162 160 154 152 151 152 147 138 136 136 144 145 127 98 74 88 135 181 334 354 359
176 175 178 167 163 167 170 168 170 173 167 166 167 168 162 152 148 152 159 159 154 159 168 165 162 162 160 162 161 154 147 138 134 140 146 151 149 157 146 160 223 303 320
174 170 170 169 168 170 171 170 172 174 171 170 173 176 171 165 167 168 172 169 170 182 188 174 170 171 175 172 161 158 160 156 151 156 157 163 164 152 148 143 157 236 315
175 178 178 173 173 172 171 170 173 173 173 175 179 177 174 173 176 174 174 182 189 190 183 181 181 181 177 173 166 164 172 167 167 168 159 159 170 167 164 157 150 139 331
179 180 176 171 172 171 170 171 170 171 176 178 176 180 179 178 180 179 179 186 189 187 181 184 184 185 180 175 169 177 179 170 176 178 174 171 179 180 181 168 162 159 194
174 177 178 176 175 175 169 166 169 174 174 175 180 187 186 186 182 179 185 188 188 184 179 187 188 187 183 178 176 180 181 176 184 185 180 186 189 180 177 176 174 173 178
178 178 180 179 172 166 165 169 174 171 173 180 184 181 185 187 182 186 192 190 184 183 187 190 189 189 188 183 184 192 185 187 193 193 195 205 193 190 186 178 177 184 178
173 173 170 166 167 171 173 179 181 183 184 181 180 187 187 184 188 194 196 191 188 190 193 190 190 194 193 189 192 199 195 196 201 203 201 212 204 205 201 194 199 201 199
157 156 158 167 177 180 181 184 186 189 182 175 180 187 190 187 192 195 194 192 191 192 191 189 194 197 196 195 200 202 202 205 209 207 206 213 205 215 214 211 213 214 210
155 157 162 169 176 180 183 185 188 184 178 177 183 189 192 193 196 194 192 193 191 191 195 197 201 200 199 199 201 202 204 209 215 215 214 215 210 216 217 218 220 217 216
129 152 160 165 166 171 180 184 186 182 181 182 190 198 196 191 191 192 194 193 194 200 200 201 205 204 201 206 204 205 207 210 217 222 224 223 219 219 216 219 219 213 219
130 126 130 144 158 170 178 184 189 186 179 186 196 196 190 188 192 196 194 192 197 200 196 203 207 207 212 210 203 201 209 212 218 225 228 230 230 230 226 226 221 210 216
116 117 120 131 151 171 179 186 189 177 178 188 193 193 190 193 199 200 195 200 203 201 202 207 209 214 216 209 204 203 205 213 218 222 226 232 232 222 230 234 235 231 227
104 102 104 106 109 121 146 161 158 164 176 187 192 194 193 198 195 189 197 202 197 202 208 211 211 215 221 209 207 206 206 215 221 223 222 229 238 230 224 233 240 244 243
88 84 83 84 79 78 91 104 108 121 138 164 180 182 183 188 184 190 199 198 195 202 208 209 211 213 220 211 210 203 206 218 230 233 232 231 239 239 224 228 242 254 258
77 75 76 75 70 61 81 94 91 92 92 95 107 127 145 159 172 184 189 182 188 206 204 211 212 216 228 217 210 202 206 220 232 237 237 233 235 242 229 229 237 252 264
76 75 75 70 61 63 82 84 79 76 70 70 73 76 89 115 129 129 127 131 149 144 147 147 120 150 192 206 212 205 208 220 229 236 239 240 233 238 237 231 236 248 263
72 71 75 68 55 58 78 79 71 68 74 77 75 71 70 74 82 91 88 95 112 115 114 117 102 79 82 95 78 117 188 223 227 241 248 246 222 226 229 226 239 253 259
75 71 76 69 56 52 66 74 59 62 72 71 67 65 65 63 64 76 81 79 83 98 105 120 121 60 42 48 56 88 163 183 208 241 245 293 273 259 248 247 253 258 249
75 74 76 71 57 50 56 60 58 64 70 68 61 57 60 58 56 58 61 69 65 76 86 102 97 66 53 43 37 43 58 55 336 327 354 8 10 337 299 308 298 276 259
74 74 77 72 59 52 53 47 51 67 71 66 60 56 55 59 58 55 50 55 49 57 81 80 87 75 41 20 44 76 59 47 42 59 46 37 19 6 357 345 331 321 305
80 77 73 71 62 59 53 43 46 66 73 66 57 56 57 57 61 64 58 53 57 53 58 65 79 67 66 69 68 66 63 59 79 81 47 18 1 343 329 323 323 319 312
Height
1482 1485 1488 1491 1494 1499 1502 1507 1511 1516 1520 1525 1529 1534 1537 1541 1544 1547 1550 1552 1553 1555 1556 1557 1559 1560 1561 1562 1563 1564 1565 1566 1567 1568 1569 1570 1570 1571 1572 1573 1573 1574 1575
1482 1484 1486 1489 1492 1496 1500 1504 1509 1514 1519 1524 1528 1533 1537 1540 1544 1546 1549 1551 1553 1554 1555 1557 1558 1559 1560 1561 1562 1563 1564 1565 1566 1568 1569 1570 1572 1571 1572 1573 1573 1574 1574
1479 1482 1484 1487 1491 1494 1497 1501 1506 1512 1517 1522 1527 1532 1536 1539 1542 1545 1548 1550 1552 1554 1555 1556 1557 1558 1560 1561 1562 1563 1564 1565 1566 1567 1569 1570 1570 1571 1572 1573 1573 1574 1574
1477 1480 1482 1485 1488 1491 1496 1500 1505 1511 1516 1521 1525 1530 1534 1537 1540 1544 1547 1549 1551 1553 1554 1556 1557 1558 1559 1560 1561 1563 1564 1565 1566 1567 1568 1569 1569 1571 1572 1573 1573 1573 1574
1475 1478 1480 1483 1486 1490 1495 1499 1504 1509 1514 1519 1524 1529 1533 1537 1540 1543 1546 1548 1550 1552 1553 1555 1556 1557 1558 1560 1561 1562 1563 1564 1565 1566 1567 1568 1569 1570 1571 1571 1572 1573 1573
1474 1476 1479 1482 1486 1489 1494 1498 1503 1507 1512 1517 1522 1527 1531 1535 1538 1542 1544 1547 1549 1550 1552 1554 1555 1556 1557 1559 1560 1561 1562 1563 1564 1565 1566 1567 1568 1569 1569 1570 1571 1572 1572
1472 1475 1478 1481 1484 1488 1492 1496 1501 1506 1510 1515 1520 1525 1529 1533 1537 1540 1543 1546 1547 1549 1551 1552 1554 1555 1556 1557 1559 1560 1561 1562 1563 1564 1565 1566 1567 1568 1568 1569 1570 1570 1571
1469 1472 1475 1479 1483 1487 1491 1495 1499 1504 1509 1513 1518 1523 1527 1531 1535 1539 1542 1544 1546 1548 1550 1551 1552 1554 1555 1556 1557 1558 1559 1560 1561 1562 1564 1565 1565 1566 1567 1568 1568 1569 1569
1467 1471 1475 1478 1481 1485 1489 1494 1498 1502 1507 1512 1517 1521 1525 1529 1533 1536 1539 1542 1544 1546 1548 1550 1551 1552 1553 1554 1556 1557 1558 1558 1560 1561 1562 1563 1564 1564 1565 1566 1567 1568 1567
1467 1470 1474 1477 1480 1484 1488 1493 1497 1501 1506 1511 1515 1519 1523 1527 1530 1534 1537 1539 1542 1544 1546 1548 1549 1550 1552 1553 1554 1555 1556 1556 1557 1559 1560 1561 1562 1562 1563 1563 1564 1565 1565
1465 1469 1472 1476 1480 1484 1488 1492 1496 1501 1505 1509 1513 1516 1520 1524 1527 1530 1534 1537 1539 1541 1544 1546 1547 1548 1549 1550 1551 1552 1553 1554 1555 1556 1557 1558 1559 1560 1560 1561 1561 1562 1562
1464 1467 1471 1475 1479 1483 1487 1490 1494 1499 1503 1507 1510 1514 1517 1520 1523 1526 1530 1534 1536 1538 1541 1543 1544 1545 1547 1548 1549 1550 1551 1551 1552 1553 1554 1555 1556 1557 1558 1558 1558 1559 1559
1462 1466 1470 1473 1477 1481 1485 1489 1493 1496 1501 1504 1508 1510 1512 1515 1519 1522 1527 1530 1532 1535 1537 1539 1541 1542 1543 1545 1546 1547 1548 1548 1549 1550 1551 1552 1553 1554 1554 1555 1555 1556 1556
1461 1464 1468 1472 1475 1479 1483 1487 1491 1494 1498 1501 1505 1507 1509 1512 1516 1520 1523 1526 1529 1531 1534 1535 1537 1538 1540 1541 1542 1543 1544 1545 1546 1547 1548 1548 1549 1550 1551 1551 1552 1552 1552
1461 1463 1466 1470 1473 1477 1481 1485 1488 1492 1495 1498 1501 1504 1507 1511 1514 1517 1520 1522 1525 1527 1530 1531 1533 1534 1535 1536 1538 1539 1540 1541 1542 1543 1544 1544 1545 1546 1547 1547 1548 1548 1548
1460 1462 1465 1468 1471 1475 1478 1482 1485 1489 1492 1495 1499 1502 1505 1508 1511 1513 1516 1518 1520 1523 1524 1526 1527 1529 1530 1531 1533 1534 1535 1536 1537 1538 1539 1540 1541 1541 1542 1542 1543 1543 1544
1460 1462 1464 1467 1469 1472 1476 1479 1482 1486 1489 1492 1495 1499 1502 1504 1507 1509 1511 1513 1516 1518 1519 1521 1522 1523 1524 1526 1527 1528 1529 1531 1532 1533 1534 1535 1535 1536 1537 1537 1538 1538 1538
1459 1461 1463 1466 1468 1471 1473 1476 1479 1482 1485 1488 1492 1495 1498 1500 1503 1505 1507 1509 1511 1513 1514 1516 1517 1518 1519 1521 1522 1523 1524 1525 1526 1527 1528 1529 1529 1530 1531 1531 1532 1532 1533
1459 1462 1464 1466 1468 1469 1471 1474 1476 1479 1483 1486 1488 1491 1494 1496 1499 1501 1503 1505 1507 1508 1509 1511 1512 1513 1514 1515 1517 1518 1518 1519 1519 1520 1521 1522 1523 1523 1524 1525 1525 1525 1526
1461 1463 1465 1466 1468 1470 1471 1473 1475 1477 1480 1483 1486 1488 1491 1493 1495 1497 1499 1501 1502 1504 1505 1506 1507 1508 1509 1510 1511 1512 1513 1513 1514 1514 1515 1515 1516 1517 1518 1518 1518 1518 1518
1463 1465 1466 1467 1469 1471 1472 1473 1475 1477 1480 1482 1484 1486 1488 1490 1492 1494 1496 1498 1499 1500 1501 1502 1503 1504 1505 1505 1506 1507 1507 1508 1508 1509 1509 1509 1510 1510 1511 1511 1511 1511 1511
1466 1467 1468 1469 1471 1473 1474 1475 1476 1478 1480 1482 1484 1485 1487 1488 1490 1492 1494 1495 1496 1497 1497 1498 1499 1500 1500 1501 1502 1502 1503 1503 1504 1503 1504 1504 1504 1504 1504 1504 1504 1504 1505
1468 1470 1471 1472 1474 1476 1477 1477 1480 1481 1482 1483 1485 1486 1487 1488 1490 1491 1492 1493 1494 1494 1495 1495 1495 1496 1497 1497 1498 1498 1499 1499 1500 1500 1499 1499 1499 1499 1499 1499 1499 1499 1498
1472 1474 1475 1476 1478 1480 1481 1482 1483 1485 1485 1485 1486 1488 1488 1489 1490 1491 1491 1492 1492 1493 1493 1493 1493 1494 1494 1494 1495 1495 1496 1496 1496 1496 1496 1496 1495 1495 1494 1494 1494 1493 1492
1477 1479 1479 1481 1483 1485 1485 1486 1488 1488 1488 1489 1489 1490 1491 1491 1491 1491 1491 1491 1492 1493 1493 1493 1493 1493 1493 1493 1493 1493 1493 1493 1493 1493 1493 1492 1491 1491 1490 1489 1489 1488 1487
1481 1483 1484 1486 1488 1489 1490 1490 1491 1492 1491 1491 1492 1492 1493 1493 1493 1493 1493 1493 1494 1493 1493 1493 1493 1493 1493 1493 1493 1492 1492 1491 1491 1491 1490 1489 1488 1487 1486 1485 1484 1483 1482